EW2974 Weather Reports


Display with metric or nautical units.
time (UTC)temp
F
wind
direction
speed
MPH
gust
MPH
rain 1hr
in
rain 24hr
in
rain mn
in
humidity
%
barometer
mb
20260903162904 83 286 0.0 1.0 0.00 0.45 0.36 76 1012.9
20260903162405 83 178 0.0 0.0 0.00 0.45 0.36 79 1012.9
20260903161904 82 277 0.0 8.0 0.00 0.45 0.36 79 1012.9
20260903161404 82 274 1.0 6.0 0.00 0.45 0.36 76 1012.9
20260903160904 82 197 3.0 8.0 0.00 0.45 0.36 77 1012.9
20260903160405 81 269 2.0 12.0 0.00 0.45 0.36 79 1013.1
20260903155904 81 287 0.0 9.0 0.00 0.45 0.36 82 1013.2
20260903154904 80 252 1.0 6.0 0.00 0.45 0.36 81 1013.2
20260903154404 80 231 0.0 1.0 0.00 0.45 0.36 83 1013.4
20260903153904 79 244 0.0 8.0 0.00 0.45 0.36 82 1013.4
20260903152904 78 163 0.0 3.0 0.00 0.45 0.36 84 1013.4
20260903152404 78 182 0.0 1.0 0.00 0.45 0.36 85 1013.4
20260903151906 78 282 0.0 8.0 0.00 0.45 0.36 84 1013.4
20260903151404 78 229 1.0 6.0 0.00 0.45 0.36 85 1013.4
20260903150404 77 277 1.0 9.0 0.00 0.45 0.36 87 1013.5
20260903145904 77 268 0.0 3.0 0.00 0.45 0.36 87 1013.5
20260903145404 76 246 0.0 3.0 0.00 0.45 0.36 88 1013.6
20260903144904 76 327 0.0 6.0 0.01 0.45 0.36 89 1013.6
20260903144404 75 194 1.0 8.0 0.01 0.45 0.36 91 1013.7
20260903143904 75 159 0.0 6.0 0.01 0.45 0.36 92 1013.7
20260903143404 74 150 1.0 5.0 0.01 0.45 0.36 92 1013.7
20260903142904 74 137 2.0 5.0 0.01 0.45 0.36 93 1013.7
20260903142404 73 177 0.0 0.0 0.01 0.45 0.36 93 1013.7
20260903141404 73 173 0.0 0.0 0.01 0.45 0.36 94 1013.8
20260903140904 73 173 0.0 0.0 0.01 0.45 0.36 95 1013.8
20260903140404 72 173 0.0 0.0 0.01 0.45 0.36 96 1013.7
20260903135904 72 173 0.0 0.0 0.01 0.45 0.36 96 1013.7
20260903135405 71 173 0.0 0.0 0.01 0.45 0.36 95 1013.7
20260903134904 71 173 0.0 1.0 0.00 0.44 0.35 96 1013.8
20260903134404 71 173 0.0 0.0 0.00 0.44 0.35 96 1013.8
20260903133404 71 173 0.0 0.0 0.00 0.44 0.35 96 1013.9
20260903132907 71 173 0.0 0.0 0.00 0.44 0.35 96 1014.0
20260903132403 70 173 0.0 0.0 0.00 0.44 0.35 96 1014.0
20260903131404 70 173 0.0 0.0 0.00 0.44 0.35 96 1014.1
20260903130904 70 173 0.0 0.0 0.00 0.44 0.35 96 1014.1
20260903130405 70 169 0.0 0.0 0.00 0.44 0.35 96 1014.2
20260903125905 69 169 0.0 0.0 0.00 0.44 0.35 96 1014.2
20260903125404 69 169 0.0 0.0 0.00 0.44 0.35 96 1014.2
20260903124904 69 169 0.0 0.0 0.00 0.44 0.35 96 1014.3
20260903124404 69 169 0.0 0.0 0.00 0.44 0.35 95 1014.2
20260903123904 69 169 0.0 0.0 0.00 0.44 0.35 95 1014.3
20260903122904 69 169 0.0 0.0 0.01 0.44 0.35 95 1014.5
20260903122404 69 169 0.0 0.0 0.18 0.44 0.35 95 1014.8
20260903121904 69 169 0.0 0.0 0.18 0.44 0.35 95 1015.0
20260903121405 69 169 0.0 0.0 0.19 0.44 0.35 95 1014.9
20260903120904 69 169 0.0 0.0 0.19 0.44 0.35 95 1014.4
20260903120404 69 169 0.0 0.0 0.19 0.44 0.35 95 1014.2
20260903115904 69 169 0.0 0.0 0.19 0.44 0.35 95 1014.1
20260903115405 68 169 0.0 0.0 0.19 0.44 0.35 95 1014.3
20260903114904 68 169 0.0 0.0 0.19 0.44 0.35 95 1014.2
20260903114404 68 169 0.0 0.0 0.19 0.44 0.35 95 1014.1
20260903113904 68 169 0.0 0.0 0.19 0.44 0.35 95 1014.4
20260903113404 68 168 0.0 0.0 0.20 0.44 0.35 95 1014.4
20260903112904 69 168 0.0 0.0 0.19 0.43 0.34 95 1014.6
20260903112404 68 168 0.0 0.0 0.03 0.26 0.17 95 1015.1
20260903110904 69 143 0.0 0.0 0.15 0.25 0.16 95 1014.1
20260903110404 69 143 0.0 0.0 0.15 0.25 0.16 95 1014.4
20260903105904 69 143 0.0 0.0 0.15 0.25 0.16 94 1014.9
20260903105404 69 143 0.0 0.0 0.15 0.25 0.16 94 1014.7
20260903104904 69 143 0.0 0.0 0.15 0.25 0.16 94 1014.4
20260903103904 69 143 0.0 0.0 0.15 0.25 0.16 93 1013.9
20260903103404 69 143 0.0 0.0 0.14 0.24 0.15 93 1013.9
20260903102404 70 143 0.0 0.0 0.13 0.23 0.14 92 1014.3
20260903101904 70 108 0.0 0.0 0.11 0.21 0.12 92 1014.8
20260903100404 71 205 1.0 8.0 0.00 0.10 0.01 94 1014.9
20260903095904 71 51 0.0 1.0 0.00 0.10 0.01 95 1014.4
20260903095404 72 52 0.0 0.0 0.00 0.10 0.01 95 1013.9
20260903094904 72 31 0.0 1.0 0.00 0.10 0.01 96 1013.6
20260903093903 72 217 0.0 0.0 0.01 0.10 0.01 96 1012.3
20260903093404 72 217 0.0 0.0 0.01 0.10 0.01 96 1012.2
20260903092903 72 217 0.0 0.0 0.01 0.10 0.01 96 1012.1
20260903092404 71 217 0.0 0.0 0.01 0.10 0.01 95 1012.1
20260903091904 71 217 0.0 0.0 0.01 0.10 0.01 95 1012.2
20260903091404 71 217 0.0 0.0 0.01 0.10 0.01 95 1012.2
20260903090904 71 217 0.0 0.0 0.01 0.10 0.01 95 1012.1
20260903090404 71 217 0.0 0.0 0.01 0.10 0.01 95 1012.3
20260903085904 71 217 0.0 0.0 0.01 0.10 0.01 95 1012.3
20260903085404 71 217 0.0 0.0 0.01 0.10 0.01 95 1012.3
20260903084904 71 217 0.0 0.0 0.01 0.10 0.01 95 1012.2
20260903084404 71 217 0.0 0.0 0.00 0.09 0.00 95 1012.2
20260903083904 71 217 0.0 0.0 0.00 0.09 0.00 95 1012.3
20260903083405 71 217 0.0 0.0 0.00 0.09 0.00 95 1012.3
20260903082904 71 217 0.0 0.0 0.00 0.09 0.00 95 1012.2
20260903082404 71 217 0.0 0.0 0.00 0.09 0.00 95 1012.2
20260903081904 71 217 0.0 0.0 0.00 0.09 0.00 95 1012.2
20260903081404 71 217 0.0 0.0 0.00 0.09 0.00 95 1012.2
20260903080904 72 217 0.0 0.0 0.00 0.09 0.00 95 1012.3
20260903080404 72 217 0.0 0.0 0.00 0.09 0.00 95 1012.1
20260903075903 72 217 0.0 0.0 0.00 0.09 0.00 95 1012.2
20260903075404 72 217 0.0 0.0 0.00 0.09 0.00 95 1012.3
20260903074404 72 217 0.0 0.0 0.00 0.09 0.00 95 1012.3
20260903073904 72 217 0.0 0.0 0.00 0.09 0.00 95 1012.1
20260903073404 72 217 0.0 0.0 0.00 0.09 0.00 95 1012.1
20260903072904 72 217 0.0 0.0 0.00 0.09 0.00 95 1012.1
20260903072404 72 217 0.0 0.0 0.00 0.09 0.00 95 1012.2
20260903071904 73 217 0.0 0.0 0.00 0.09 0.00 95 1012.2
20260903070404 73 217 0.0 0.0 0.00 0.09 0.00 95 1012.3
20260903065403 73 217 0.0 0.0 0.00 0.09 0.00 95 1012.4
20260903063904 74 217 0.0 0.0 0.00 0.09 0.00 96 1012.6
20260903062904 74 217 0.0 0.0 0.00 0.09 0.00 96 1012.9
20260903062403 74 223 0.0 0.0 0.00 0.09 0.00 96 1012.1
20260903061904 74 223 0.0 0.0 0.00 0.09 0.00 95 1012.0
20260903061405 74 223 0.0 0.0 0.00 0.09 0.00 95 1011.8
20260903060905 74 223 0.0 0.0 0.00 0.09 0.00 95 1011.8
20260903060405 74 223 0.0 0.0 0.00 0.09 0.00 96 1011.8
20260903055904 74 223 0.0 0.0 0.00 0.09 0.00 95 1011.8
20260903055405 74 223 0.0 0.0 0.00 0.09 0.00 95 1011.8
20260903054905 74 223 0.0 0.0 0.00 0.09 0.00 95 1011.7
20260903054405 74 223 0.0 0.0 0.00 0.09 0.00 95 1011.7
20260903053905 74 223 0.0 0.0 0.00 0.09 0.00 95 1011.8
20260903053405 74 223 0.0 0.0 0.00 0.09 0.00 95 1011.8
20260903052905 74 223 0.0 0.0 0.00 0.09 0.00 95 1011.7
20260903051904 74 223 0.0 0.0 0.00 0.09 0.00 95 1011.7
20260903051404 74 223 0.0 0.0 0.00 0.09 0.00 95 1011.7
20260903050905 74 223 0.0 0.0 0.00 0.09 0.00 95 1011.7
20260903050405 74 223 0.0 0.0 0.00 0.09 0.00 95 1011.7
20260903045905 74 223 0.0 0.0 0.00 0.09 0.00 95 1011.7
20260903045404 74 223 0.0 0.0 0.00 0.09 0.00 95 1011.6
20260903044904 74 223 0.0 0.0 0.00 0.09 0.00 95 1011.6
20260903044405 74 223 0.0 0.0 0.00 0.09 0.00 95 1011.5
20260903043905 74 223 0.0 0.0 0.00 0.09 0.00 95 1011.5
20260903043405 74 223 0.0 0.0 0.00 0.09 0.00 95 1011.3
20260903042905 74 223 0.0 0.0 0.00 0.09 0.00 95 1011.2
20260903041405 74 223 0.0 0.0 0.00 0.09 0.00 95 1010.9
20260903040905 74 223 0.0 0.0 0.00 0.09 0.00 95 1010.8
20260903040404 74 223 0.0 0.0 0.00 0.09 0.00 95 1010.9
20260903035905 74 223 0.0 0.0 0.00 0.09 0.09 95 1010.7
20260903034905 74 223 0.0 0.0 0.00 0.09 0.09 95 1010.6
20260903034405 74 223 0.0 0.0 0.00 0.09 0.09 95 1010.6
20260903033905 74 223 0.0 0.0 0.00 0.09 0.09 95 1010.6
20260903033404 74 223 0.0 0.0 0.00 0.09 0.09 95 1010.7
20260903032906 74 223 0.0 0.0 0.00 0.09 0.09 95 1010.7
20260903032405 74 223 0.0 0.0 0.00 0.09 0.09 95 1010.8
20260903031905 74 223 0.0 0.0 0.00 0.09 0.09 95 1010.9
20260903031405 74 223 0.0 0.0 0.00 0.09 0.09 95 1011.0
20260903030905 74 223 0.0 0.0 0.00 0.09 0.09 95 1011.1
20260903030405 74 223 0.0 0.0 0.00 0.09 0.09 95 1011.4
20260903025905 74 223 0.0 0.0 0.00 0.09 0.09 95 1011.5
20260903025404 74 223 0.0 0.0 0.00 0.09 0.09 95 1011.6
20260903024905 74 223 0.0 0.0 0.00 0.09 0.09 95 1011.7
20260903024405 74 223 0.0 0.0 0.00 0.09 0.09 95 1011.8
20260903022904 74 223 0.0 0.0 0.00 0.09 0.09 95 1012.0
20260903022405 74 223 0.0 0.0 0.00 0.09 0.09 95 1011.9
20260903021905 74 223 0.0 0.0 0.00 0.09 0.09 95 1011.8
20260903021404 75 223 0.0 0.0 0.00 0.09 0.09 95 1011.8
20260903020905 75 223 0.0 0.0 0.00 0.09 0.09 95 1011.8
20260903020404 75 223 0.0 0.0 0.00 0.09 0.09 95 1011.7
20260903015905 75 223 0.0 0.0 0.00 0.09 0.09 95 1011.7
20260903014405 75 223 0.0 0.0 0.00 0.09 0.09 95 1011.8
20260903013904 75 223 0.0 0.0 0.00 0.09 0.09 95 1011.8
20260903013405 75 223 0.0 0.0 0.00 0.09 0.09 94 1011.8
20260903012904 75 223 0.0 0.0 0.00 0.09 0.09 94 1011.8
20260903012404 75 223 0.0 0.0 0.00 0.09 0.09 94 1011.9
20260903011905 75 223 0.0 0.0 0.01 0.09 0.09 94 1012.1
20260903011405 75 223 0.0 0.0 0.01 0.09 0.09 94 1012.2
20260903010905 75 223 0.0 0.0 0.01 0.09 0.09 94 1012.3
20260903010405 75 223 0.0 0.0 0.01 0.09 0.09 94 1012.4
20260903005905 75 223 0.0 0.0 0.01 0.09 0.09 94 1012.4
20260903004405 76 223 0.0 0.0 0.01 0.09 0.09 95 1012.1
20260903003905 76 223 0.0 0.0 0.01 0.09 0.09 95 1012.0
20260903003405 76 223 0.0 0.0 0.01 0.09 0.09 94 1012.0
20260903002905 76 223 0.0 0.0 0.01 0.09 0.09 94 1012.0
20260903002405 76 223 0.0 0.0 0.01 0.09 0.09 94 1012.2
20260903001905 76 223 0.0 0.0 0.00 0.08 0.08 94 1012.0
20260903001404 76 223 0.0 0.0 0.00 0.08 0.08 94 1011.6
20260903000905 76 223 0.0 0.0 0.00 0.08 0.08 94 1011.8
20260903000404 76 223 0.0 0.0 0.00 0.08 0.08 94 1011.7
20260902235905 76 223 0.0 0.0 0.00 0.08 0.08 94 1011.6
20260902235404 76 223 0.0 0.0 0.00 0.08 0.08 94 1011.7
20260902234405 76 223 0.0 0.0 0.00 0.08 0.08 94 1011.9
20260902233904 76 223 0.0 0.0 0.00 0.08 0.08 94 1011.8
20260902233405 76 223 0.0 0.0 0.00 0.08 0.08 93 1011.8
20260902232904 76 223 0.0 0.0 0.00 0.08 0.08 93 1011.7
20260902232404 76 223 0.0 0.0 0.00 0.08 0.08 93 1011.7
20260902231905 76 223 0.0 0.0 0.00 0.08 0.08 93 1011.8
20260902231404 76 223 0.0 0.0 0.00 0.08 0.08 92 1011.9
20260902230905 76 223 0.0 0.0 0.00 0.08 0.08 92 1011.9
20260902230405 76 223 0.0 0.0 0.00 0.08 0.08 92 1011.8
20260902225905 76 223 0.0 0.0 0.00 0.08 0.08 91 1011.9
20260902225405 77 223 0.0 0.0 0.00 0.08 0.08 91 1011.9
20260902224904 77 223 0.0 0.0 0.01 0.08 0.08 90 1012.0
20260902224405 77 223 0.0 0.0 0.01 0.08 0.08 89 1012.1
20260902223904 77 223 0.0 0.0 0.01 0.08 0.08 89 1012.1
20260902222404 78 223 0.0 0.0 0.01 0.08 0.08 91 1012.1
20260902221905 79 223 0.0 0.0 0.01 0.08 0.08 90 1012.0
20260902221405 79 223 0.0 0.0 0.01 0.08 0.08 91 1012.0
20260902220905 79 223 0.0 0.0 0.02 0.08 0.08 92 1011.9
20260902220404 79 223 0.0 0.0 0.06 0.08 0.08 93 1011.7
20260902215904 78 223 1.0 3.0 0.06 0.08 0.08 93 1011.9
20260902215405 78 55 0.0 0.0 0.06 0.08 0.08 93 1011.8
20260902214905 78 55 0.0 0.0 0.05 0.07 0.07 93 1011.8
20260902214404 78 55 0.0 0.0 0.07 0.07 0.07 91 1011.8
20260902213905 78 55 0.0 0.0 0.07 0.07 0.07 91 1011.8
20260902213404 78 55 0.0 0.0 0.07 0.07 0.07 91 1011.6
20260902212904 78 55 0.0 0.0 0.07 0.07 0.07 91 1011.7
20260902212404 77 55 0.0 0.0 0.07 0.07 0.07 88 1011.8
20260902211905 78 55 0.0 0.0 0.07 0.07 0.07 84 1011.9
20260902210904 80 55 0.0 3.0 0.06 0.06 0.06 85 1012.5
20260902210404 81 287 1.0 6.0 0.02 0.02 0.02 81 1012.9
20260902205905 83 256 0.0 1.0 0.02 0.02 0.02 77 1012.7
20260902205404 85 269 0.0 0.0 0.02 0.02 0.02 74 1012.2
20260902204905 86 253 1.0 8.0 0.02 0.02 0.02 70 1012.2
20260902203905 87 293 0.0 0.0 0.00 0.00 0.00 68 1012.0
20260902203405 88 293 0.0 0.0 0.00 0.00 0.00 68 1012.1
20260902202405 90 293 0.0 0.0 0.00 0.00 0.00 63 1012.0
20260902201905 91 243 0.0 0.0 0.00 0.00 0.00 62 1012.1
20260902201404 91 235 0.0 3.0 0.00 0.00 0.00 58 1012.1
20260902200904 92 223 0.0 0.0 0.00 0.00 0.00 58 1012.1
20260902200404 92 223 0.0 3.0 0.00 0.00 0.00 58 1012.0
20260902195905 92 250 1.0 5.0 0.00 0.00 0.00 57 1012.1
20260902195404 92 271 1.0 5.0 0.00 0.00 0.00 57 1012.2
20260902194905 93 236 0.0 0.0 0.00 0.00 0.00 56 1012.1
20260902194404 94 252 0.0 1.0 0.00 0.00 0.00 55 1012.1
20260902193405 94 266 3.0 12.0 0.00 0.00 0.00 54 1012.2
20260902192904 95 263 3.0 9.0 0.00 0.00 0.00 56 1012.3
20260902192405 95 266 1.0 6.0 0.00 0.00 0.00 56 1012.3
20260902191905 94 272 0.0 6.0 0.00 0.00 0.00 56 1012.4
20260902191404 94 205 0.0 3.0 0.00 0.00 0.00 55 1012.4
20260902190904 94 269 2.0 8.0 0.00 0.00 0.00 56 1012.5
20260902190404 94 178 0.0 3.0 0.00 0.00 0.00 56 1012.5
20260902185904 94 278 1.0 6.0 0.00 0.00 0.00 54 1012.5
20260902185404 94 270 0.0 8.0 0.00 0.00 0.00 56 1012.5
20260902184904 94 257 0.0 5.0 0.00 0.00 0.00 55 1012.5
20260902184405 94 292 1.0 8.0 0.00 0.00 0.00 56 1012.7
20260902183904 94 194 1.0 5.0 0.00 0.00 0.00 58 1012.7
20260902183404 94 264 3.0 8.0 0.00 0.00 0.00 57 1012.7
20260902182904 94 210 0.0 9.0 0.00 0.00 0.00 59 1012.8
20260902182405 93 218 0.0 6.0 0.00 0.00 0.00 57 1012.9
20260902181905 94 207 0.0 1.0 0.00 0.00 0.00 59 1012.9
20260902181404 93 232 0.0 3.0 0.00 0.00 0.00 58 1013.0
20260902180904 93 246 2.0 6.0 0.00 0.00 0.00 60 1013.1
20260902180405 93 246 0.0 1.0 0.00 0.00 0.00 61 1013.2
20260902175905 93 249 0.0 5.0 0.00 0.00 0.00 61 1013.2
20260902175404 93 259 2.0 16.0 0.00 0.00 0.00 61 1013.2
20260902174904 93 251 0.0 1.0 0.00 0.00 0.00 62 1013.3
20260902174404 93 250 1.0 3.0 0.00 0.00 0.00 62 1013.4
20260902173904 92 282 0.0 6.0 0.00 0.00 0.00 63 1013.4
20260902173404 92 199 0.0 5.0 0.00 0.00 0.00 63 1013.4
20260902171904 91 224 0.0 5.0 0.00 0.00 0.00 66 1013.6
20260902171404 91 178 0.0 8.0 0.00 0.00 0.00 66 1013.6
20260902170905 91 178 0.0 6.0 0.00 0.00 0.00 66 1013.6
20260902170404 91 185 1.0 5.0 0.00 0.00 0.00 67 1013.6
20260902165404 90 260 0.0 6.0 0.00 0.00 0.00 67 1013.6
20260902163904 89 165 0.0 0.0 0.00 0.00 0.00 71 1013.8
20260902163404 89 214 1.0 6.0 0.00 0.00 0.00 68 1013.8